Home > Weather > Canberra > Past weeks

Flag for Australia Past Weather in Canberra, Australian Capital Territory, Australia — Yesterday and Last 2 Weeks

Now
45 °F

Scattered showers. Scattered clouds.


Feels Like: 37 °F
Forecast: 41 / 48 °F
Wind: 17 mph from Northwest

Location: Canberra Airport

Current Time: Jul 25, 2016 at 4:21:23 PM

Latest Report: Jul 25, 2016 at 4:00 PM


Visibility: N/A

Pressure: 29.86 "Hg (27.83 "Hg at 577m altitude)

Humidity: 87%

Dew Point: 41 °F

Location of CanberraLocation

Past Weather in Canberra — Graph

°F

Canberra Temperature Yesterday

Maximum temperature yesterday: 46 °F (at 2:30 PM)
Minimum temperature yesterday: 28 °F (at 7:00 AM)
Average temperature yesterday: 40 °F

High & Low Weather Summary for the Past Weeks

 TemperatureHumidityPressure
High64 °F (Jul 19, 12:30 PM)100% (Jul 11, 1:30 AM)30.51 "Hg (Jul 11, 1:30 AM)
Low27 °F (Jul 16, 6:00 AM)38% (Jul 14, 2:30 PM)29.45 "Hg (Jul 22, 3:54 PM)
Average47 °F81%30.06 "Hg
* Reported Jul 10 3:00 PM — Jul 25 3:00 PM, Canberra, Weather by CustomWeather, © 2016

Note: Actual official high and low records may vary slightly from our data, if they occured in-between our weather recording intervals... More about our weather records

Advertising

Canberra Weather History for the Previous 24 Hours

Scroll right to see more
 ConditionsComfort  
Time TempWeatherWind HumidityBarometerVisibility
3:00 PM
Mon, Jul 25
48 °FBroken clouds.17 mph66%29.86 "HgN/A
2:30 PM50 °FScattered clouds.16 mph62%29.86 "HgN/A
2:00 PM46 °FScattered clouds.15 mph76%29.86 "HgN/A
1:00 PM48 °FScattered clouds.22 mph71%29.86 "HgN/A
12:30 PM50 °FScattered clouds.23 mph67%29.89 "HgN/A
12:00 PM46 °FScattered clouds.22 mph76%29.89 "HgN/A
11:30 AM48 °FScattered clouds.21 mph71%29.89 "HgN/A
11:00 AM48 °FScattered clouds.20 mph71%29.89 "HgN/A
10:30 AM45 °FScattered clouds.14 mph76%29.89 "HgN/A
10:00 AM45 °FScattered clouds.15 mph81%29.89 "HgN/A
9:00 AM45 °FScattered clouds.18 mph81%29.86 "HgN/A
8:30 AM43 °FScattered clouds.18 mph87%29.86 "HgN/A
8:00 AM41 °FScattered clouds.18 mph93%29.83 "HgN/A
7:30 AM41 °FSprinkles. Scattered clouds.15 mph93%29.83 "HgN/A
7:00 AM41 °FScattered clouds.17 mph87%29.80 "HgN/A
6:30 AM41 °FSprinkles. Partly sunny.18 mph93%29.80 "HgN/A
6:00 AM41 °FSprinkles. Partly cloudy.16 mph93%29.80 "HgN/A
5:30 AM41 °FScattered showers. Passing clouds.15 mph93%29.80 "HgN/A
5:00 AM41 °FScattered showers. Partly cloudy.14 mph87%29.80 "HgN/A
4:30 AM41 °FScattered showers. Passing clouds.15 mph87%29.77 "HgN/A
4:00 AM41 °FLight rain. Mostly cloudy.10 mph87%29.77 "HgN/A
3:30 AM41 °FOvercast.9 mph81%29.77 "HgN/A
3:00 AM39 °FPartly cloudy.14 mph87%29.80 "HgN/A
2:30 AM41 °FPartly cloudy.10 mph81%29.80 "HgN/A
2:00 AM39 °FPassing clouds.12 mph93%29.80 "HgN/A
1:30 AM41 °FPartly cloudy.10 mph87%29.77 "HgN/A
1:00 AM41 °FOvercast.10 mph87%29.77 "HgN/A
12:00 AM41 °FOvercast.15 mph93%29.80 "HgN/A
11:30 PM
Sun, Jul 24
41 °FSprinkles. Mostly cloudy.20 mph93%29.80 "HgN/A
11:00 PM41 °FSprinkles. Overcast.8 mph100%29.80 "HgN/A
10:30 PM41 °FOvercast.8 mph87%29.80 "HgN/A
10:03 PM39 °FSprinkles. Mostly cloudy.7 mph93%29.83 "HgN/A
10:00 PM39 °FLight rain. Mostly cloudy.8 mph93%29.83 "HgN/A
9:00 PM39 °FSprinkles. Partly cloudy.10 mph93%29.83 "HgN/A
8:52 PM39 °FSprinkles. Partly cloudy.10 mph87%29.83 "HgN/A
8:00 PM41 °FRain showers. Mostly cloudy.8 mph87%29.83 "HgN/A
7:30 PM41 °FRain showers. Mostly cloudy.12 mph87%29.83 "HgN/A
7:00 PM41 °FMostly cloudy.10 mph87%29.83 "HgN/A
6:30 PM41 °FPartly cloudy.12 mph81%29.83 "HgN/A
6:00 PM43 °FSprinkles. Passing clouds.14 mph71%29.83 "HgN/A
5:30 PM43 °FPartly cloudy.16 mph71%29.83 "HgN/A
5:00 PM45 °FPassing clouds.14 mph61%29.83 "HgN/A
4:30 PM45 °FPassing clouds.16 mph61%29.83 "HgN/A
4:00 PM45 °FPartly sunny.17 mph66%29.83 "HgN/A
Weather by CustomWeather, © 2016

See weather overviewHow to use our weather pages